QPF
0.05 0.05 0.06 0.05 0.04 0.03 0.02 0.03 0.05 0.05 0.04 0.04 0.02 0.02 0.02 0.02 0.02 0.01 0.01 0.01 0.00 0.01 0.01 0.01 0.00 0.00 0.00 0.00 0.00 0.00 0.00 0.01 0.01 0.00 0.01 0.01 0.01 0.01
0.04 0.04 0.04 0.04 0.03 0.02 0.02 0.03 0.03 0.04 0.04 0.03 0.02 0.01 0.01 0.01 0.01 0.01 0.01 0.00 0.00 0.00 0.01 0.01 0.01 0.01 0.00 0.00 0.00 0.00 0.00 0.01 0.01 0.00 0.00 0.00 0.00 0.00
0.02 0.02 0.03 0.03 0.03 0.03 0.02 0.02 0.02 0.02 0.03 0.03 0.01 0.01 0.01 0.01 0.01 0.01 0.01 0.01 0.02 0.00 0.00 0.00 0.00 0.00 0.00 0.00 0.00 0.00 0.01 0.01 0.01 0.01 0.01 0.01 0.01 0.01
0.02 0.02 0.02 0.02 0.03 0.02 0.02 0.02 0.01 0.01 0.02 0.02 0.01 0.01 0.01 0.01 0.01 0.01 0.00 0.01 0.01 0.00 0.00 0.00 0.00 0.00 0.00 0.00 0.00 0.00 0.00 0.00 0.00 0.00 0.01 0.01 0.00 0.00
0.03 0.02 0.02 0.02 0.02 0.02 0.02 0.02 0.02 0.01 0.02 0.02 0.01 0.01 0.00 0.00 0.01 0.01 0.01 0.01 0.00 0.00 0.00 0.00 0.00 0.00 0.00 0.00 0.00 0.00 0.00 0.00 0.00 0.00 0.00 0.00 0.00 0.00
0.04 0.04 0.03 0.03 0.02 0.02 0.02 0.02 0.02 0.02 0.02 0.02 0.02 0.01 0.01 0.00 0.01 0.01 0.01 0.01 0.01 0.00 0.00 0.00 0.00 0.00 0.00 0.00 0.00 0.00 0.00 0.00 0.00 0.00 0.00 0.00 0.00 0.00
0.03 0.03 0.02 0.02 0.02 0.02 0.02 0.02 0.02 0.02 0.02 0.02 0.02 0.01 0.02 0.02 0.01 0.02 0.02 0.01 0.01 0.01 0.00 0.00 0.00 0.00 0.01 0.01 0.00 0.00 0.01 0.01 0.01 0.00 0.00 0.00 0.00 0.00
0.05 0.03 0.02 0.01 0.02 0.02 0.02 0.02 0.02 0.03 0.03 0.03 0.02 0.02 0.02 0.03 0.03 0.02 0.02 0.02 0.01 0.01 0.01 0.00 0.00 0.00 0.00 0.00 0.00 0.00 0.00 0.00 0.00 0.00 0.00 0.00 0.00 0.00
0.07 0.05 0.03 0.02 0.03 0.03 0.03 0.03 0.02 0.03 0.03 0.03 0.03 0.03 0.03 0.04 0.04 0.03 0.03 0.02 0.02 0.01 0.01 0.01 0.00 0.00 0.00 0.00 0.00 0.00 0.00 0.00 0.00 0.00 0.00 0.00 0.00 0.00
0.04 0.04 0.04 0.03 0.02 0.02 0.03 0.03 0.04 0.04 0.04 0.04 0.04 0.04 0.03 0.03 0.03 0.03 0.03 0.03 0.02 0.02 0.02 0.01 0.01 0.01 0.00 0.00 0.00 0.00 0.00 0.00 0.00 0.00 0.00 0.00 0.00 0.00
0.03 0.03 0.04 0.04 0.03 0.02 0.02 0.04 0.04 0.05 0.04 0.04 0.04 0.03 0.02 0.01 0.02 0.02 0.02 0.02 0.02 0.01 0.01 0.01 0.01 0.01 0.00 0.00 0.00 0.00 0.00 0.00 0.00 0.00 0.00 0.00 0.00 0.00
0.03 0.03 0.04 0.04 0.03 0.02 0.02 0.03 0.03 0.03 0.02 0.02 0.02 0.02 0.02 0.02 0.01 0.01 0.01 0.01 0.01 0.01 0.01 0.01 0.01 0.01 0.00 0.00 0.00 0.00 0.00 0.00 0.00 0.00 0.00 0.00 0.00 0.00
0.04 0.05 0.05 0.04 0.04 0.03 0.02 0.02 0.02 0.01 0.01 0.01 0.01 0.01 0.01 0.01 0.01 0.01 0.01 0.01 0.01 0.01 0.01 0.01 0.01 0.01 0.01 0.01 0.01 0.01 0.01 0.01 0.01 0.01 0.00 0.00 0.00 0.00
0.05 0.04 0.04 0.06 0.05 0.05 0.03 0.02 0.01 0.01 0.01 0.01 0.01 0.01 0.01 0.01 0.01 0.01 0.01 0.01 0.01 0.01 0.01 0.01 0.01 0.01 0.02 0.02 0.01 0.01 0.01 0.01 0.01 0.01 0.01 0.01 0.01 0.01
0.04 0.04 0.04 0.04 0.04 0.03 0.02 0.01 0.01 0.01 0.01 0.01 0.01 0.00 0.01 0.01 0.01 0.01 0.01 0.01 0.01 0.01 0.01 0.01 0.01 0.01 0.02 0.02 0.01 0.01 0.01 0.01 0.01 0.02 0.02 0.02 0.02 0.02
0.03 0.03 0.02 0.02 0.01 0.01 0.01 0.01 0.00 0.00 0.00 0.00 0.00 0.00 0.00 0.01 0.01 0.01 0.01 0.01 0.01 0.01 0.01 0.02 0.02 0.02 0.02 0.02 0.02 0.01 0.02 0.02 0.02 0.02 0.02 0.02 0.02 0.02
0.02 0.02 0.02 0.01 0.01 0.01 0.01 0.01 0.01 0.01 0.01 0.01 0.01 0.01 0.01 0.01 0.01 0.01 0.01 0.01 0.02 0.02 0.02 0.03 0.02 0.02 0.02 0.02 0.02 0.01 0.01 0.02 0.02 0.02 0.02 0.02 0.02 0.02
0.04 0.04 0.04 0.03 0.02 0.02 0.01 0.01 0.01 0.01 0.01 0.01 0.01 0.01 0.01 0.01 0.01 0.01 0.01 0.01 0.02 0.02 0.02 0.02 0.02 0.02 0.02 0.02 0.01 0.01 0.01 0.01 0.02 0.02 0.02 0.02 0.02 0.02
0.04 0.04 0.04 0.04 0.03 0.02 0.02 0.02 0.02 0.02 0.02 0.02 0.03 0.02 0.02 0.02 0.02 0.02 0.02 0.02 0.02 0.01 0.01 0.02 0.02 0.03 0.02 0.02 0.01 0.01 0.01 0.01 0.02 0.02 0.02 0.02 0.02 0.02
0.06 0.06 0.06 0.06 0.06 0.05 0.04 0.04 0.04 0.03 0.03 0.03 0.03 0.03 0.03 0.03 0.03 0.03 0.03 0.03 0.02 0.02 0.02 0.02 0.02 0.02 0.02 0.02 0.02 0.01 0.01 0.01 0.01 0.02 0.02 0.03 0.02 0.02
0.05 0.06 0.06 0.06 0.06 0.06 0.06 0.05 0.05 0.05 0.04 0.04 0.04 0.05 0.04 0.04 0.04 0.03 0.03 0.02 0.02 0.02 0.02 0.02 0.02 0.01 0.02 0.02 0.02 0.02 0.02 0.02 0.01 0.02 0.02 0.03 0.04 0.04
0.03 0.03 0.03 0.03 0.04 0.04 0.04 0.04 0.04 0.04 0.04 0.03 0.03 0.03 0.03 0.02 0.02 0.02 0.02 0.02 0.02 0.01 0.02 0.02 0.02 0.02 0.03 0.04 0.04 0.03 0.02 0.02 0.02 0.02 0.01 0.01 0.02 0.02
0.03 0.02 0.02 0.02 0.02 0.02 0.03 0.03 0.03 0.03 0.03 0.03 0.03 0.03 0.03 0.03 0.02 0.02 0.02 0.02 0.02 0.03 0.03 0.03 0.02 0.03 0.04 0.03 0.03 0.02 0.02 0.02 0.02 0.02 0.01 0.01 0.01 0.00
MSLP
1017.19 1017.17 1017.17 1017.19 1017.23 1017.25 1017.26 1017.23 1017.16 1017.05 1016.93 1016.81 1016.72 1016.68 1016.71 1016.84 1017.05 1017.35 1017.72 1018.12 1018.52 1018.90 1019.22 1019.48 1019.65 1019.73 1019.75 1019.71 1019.63 1019.53 1019.43 1019.33 1019.25 1019.17 1019.10 1019.03 1018.94 1018.84
1017.02 1017.01 1017.02 1017.05 1017.08 1017.11 1017.11 1017.08 1017.02 1016.92 1016.79 1016.66 1016.55 1016.49 1016.49 1016.56 1016.72 1016.96 1017.26 1017.60 1017.95 1018.29 1018.58 1018.82 1018.99 1019.09 1019.13 1019.12 1019.06 1018.99 1018.91 1018.82 1018.74 1018.66 1018.57 1018.48 1018.38 1018.26
1016.77 1016.79 1016.82 1016.87 1016.92 1016.97 1017.00 1016.99 1016.95 1016.88 1016.78 1016.66 1016.55 1016.47 1016.43 1016.46 1016.54 1016.69 1016.89 1017.13 1017.38 1017.64 1017.87 1018.06 1018.21 1018.32 1018.39 1018.41 1018.41 1018.38 1018.34 1018.28 1018.22 1018.14 1018.06 1017.95 1017.84 1017.70
1016.41 1016.47 1016.53 1016.62 1016.71 1016.79 1016.86 1016.91 1016.92 1016.89 1016.83 1016.75 1016.66 1016.58 1016.52 1016.49 1016.49 1016.54 1016.63 1016.75 1016.88 1017.02 1017.17 1017.29 1017.41 1017.51 1017.59 1017.66 1017.70 1017.74 1017.75 1017.74 1017.71 1017.66 1017.58 1017.47 1017.34 1017.18
1015.94 1016.03 1016.14 1016.27 1016.40 1016.53 1016.66 1016.76 1016.82 1016.86 1016.86 1016.83 1016.77 1016.71 1016.64 1016.58 1016.53 1016.49 1016.47 1016.46 1016.47 1016.49 1016.53 1016.58 1016.65 1016.72 1016.81 1016.90 1017.00 1017.08 1017.16 1017.21 1017.22 1017.20 1017.13 1017.02 1016.88 1016.71
1015.35 1015.48 1015.62 1015.78 1015.96 1016.14 1016.30 1016.46 1016.58 1016.68 1016.74 1016.77 1016.77 1016.74 1016.69 1016.62 1016.53 1016.44 1016.33 1016.23 1016.13 1016.04 1015.98 1015.95 1015.95 1015.99 1016.06 1016.17 1016.30 1016.43 1016.55 1016.65 1016.71 1016.72 1016.68 1016.58 1016.43 1016.24
1014.66 1014.81 1014.98 1015.16 1015.36 1015.57 1015.77 1015.96 1016.12 1016.27 1016.39 1016.48 1016.53 1016.56 1016.54 1016.49 1016.41 1016.29 1016.15 1015.98 1015.81 1015.64 1015.49 1015.38 1015.32 1015.31 1015.36 1015.46 1015.60 1015.76 1015.92 1016.06 1016.15 1016.19 1016.17 1016.08 1015.93 1015.74
1013.88 1014.04 1014.22 1014.42 1014.62 1014.84 1015.05 1015.25 1015.44 1015.61 1015.77 1015.90 1016.01 1016.09 1016.13 1016.13 1016.08 1015.98 1015.84 1015.65 1015.44 1015.23 1015.03 1014.86 1014.74 1014.68 1014.70 1014.77 1014.90 1015.07 1015.24 1015.39 1015.51 1015.57 1015.57 1015.49 1015.35 1015.15
1013.04 1013.21 1013.39 1013.58 1013.78 1013.99 1014.19 1014.38 1014.57 1014.75 1014.92 1015.09 1015.24 1015.36 1015.46 1015.52 1015.52 1015.47 1015.36 1015.20 1014.99 1014.76 1014.54 1014.33 1014.17 1014.07 1014.05 1014.09 1014.19 1014.33 1014.50 1014.65 1014.78 1014.85 1014.85 1014.78 1014.64 1014.44
1012.13 1012.31 1012.50 1012.69 1012.89 1013.08 1013.26 1013.44 1013.60 1013.77 1013.94 1014.11 1014.27 1014.43 1014.57 1014.69 1014.75 1014.76 1014.70 1014.59 1014.42 1014.21 1013.99 1013.77 1013.60 1013.47 1013.40 1013.41 1013.47 1013.58 1013.72 1013.86 1013.97 1014.04 1014.04 1013.97 1013.84 1013.64
1011.14 1011.34 1011.55 1011.76 1011.97 1012.16 1012.33 1012.49 1012.64 1012.78 1012.92 1013.08 1013.24 1013.41 1013.57 1013.72 1013.83 1013.89 1013.89 1013.84 1013.72 1013.55 1013.36 1013.17 1012.99 1012.85 1012.76 1012.74 1012.77 1012.84 1012.94 1013.05 1013.14 1013.19 1013.19 1013.12 1012.98 1012.80
1010.03 1010.27 1010.53 1010.78 1011.02 1011.24 1011.42 1011.58 1011.71 1011.83 1011.95 1012.08 1012.22 1012.37 1012.53 1012.69 1012.82 1012.92 1012.98 1012.97 1012.91 1012.80 1012.66 1012.50 1012.35 1012.23 1012.14 1012.10 1012.11 1012.15 1012.22 1012.30 1012.36 1012.38 1012.36 1012.29 1012.16 1011.97
1008.78 1009.08 1009.39 1009.71 1010.01 1010.28 1010.50 1010.68 1010.81 1010.93 1011.02 1011.11 1011.22 1011.34 1011.48 1011.62 1011.76 1011.88 1011.96 1012.01 1012.01 1011.96 1011.88 1011.78 1011.69 1011.60 1011.54 1011.51 1011.52 1011.55 1011.60 1011.65 1011.68 1011.69 1011.65 1011.56 1011.42 1011.24
1007.39 1007.74 1008.12 1008.51 1008.89 1009.22 1009.49 1009.71 1009.87 1009.98 1010.06 1010.13 1010.20 1010.28 1010.38 1010.50 1010.62 1010.75 1010.86 1010.94 1011.00 1011.03 1011.03 1011.01 1010.98 1010.97 1010.96 1010.97 1011.00 1011.05 1011.09 1011.13 1011.15 1011.13 1011.08 1010.98 1010.84 1010.66
1005.92 1006.30 1006.73 1007.18 1007.61 1008.01 1008.34 1008.59 1008.78 1008.89 1008.97 1009.01 1009.05 1009.10 1009.16 1009.25 1009.37 1009.50 1009.64 1009.77 1009.89 1010.00 1010.09 1010.18 1010.25 1010.33 1010.40 1010.48 1010.56 1010.64 1010.71 1010.75 1010.76 1010.74 1010.67 1010.56 1010.42 1010.25
1004.49 1004.85 1005.29 1005.76 1006.22 1006.64 1007.00 1007.28 1007.47 1007.59 1007.65 1007.68 1007.69 1007.71 1007.76 1007.84 1007.96 1008.11 1008.29 1008.48 1008.68 1008.89 1009.09 1009.29 1009.48 1009.67 1009.85 1010.02 1010.17 1010.30 1010.40 1010.47 1010.49 1010.46 1010.39 1010.28 1010.13 1009.96
1003.29 1003.58 1003.96 1004.39 1004.82 1005.21 1005.54 1005.79 1005.96 1006.06 1006.10 1006.10 1006.10 1006.11 1006.16 1006.25 1006.39 1006.59 1006.83 1007.10 1007.41 1007.73 1008.05 1008.37 1008.69 1009.00 1009.29 1009.56 1009.79 1009.98 1010.13 1010.23 1010.27 1010.25 1010.18 1010.07 1009.93 1009.76
1002.53 1002.70 1002.96 1003.27 1003.59 1003.88 1004.12 1004.28 1004.38 1004.41 1004.40 1004.37 1004.35 1004.36 1004.42 1004.55 1004.75 1005.01 1005.34 1005.72 1006.13 1006.57 1007.02 1007.47 1007.92 1008.34 1008.73 1009.09 1009.40 1009.65 1009.85 1009.98 1010.04 1010.04 1009.98 1009.87 1009.73 1009.57
1002.39 1002.39 1002.48 1002.61 1002.76 1002.88 1002.95 1002.97 1002.94 1002.86 1002.77 1002.69 1002.64 1002.65 1002.74 1002.91 1003.18 1003.53 1003.96 1004.44 1004.97 1005.53 1006.09 1006.66 1007.20 1007.72 1008.19 1008.62 1008.99 1009.29 1009.52 1009.67 1009.76 1009.77 1009.72 1009.62 1009.48 1009.32
1002.96 1002.78 1002.67 1002.59 1002.51 1002.41 1002.27 1002.09 1001.89 1001.67 1001.46 1001.30 1001.21 1001.21 1001.32 1001.54 1001.88 1002.31 1002.84 1003.42 1004.05 1004.70 1005.35 1005.99 1006.60 1007.17 1007.70 1008.16 1008.55 1008.88 1009.12 1009.29 1009.39 1009.41 1009.37 1009.28 1009.15 1008.99
1004.22 1003.87 1003.57 1003.27 1002.96 1002.62 1002.25 1001.85 1001.45 1001.06 1000.72 1000.46 1000.31 1000.29 1000.40 1000.66 1001.04 1001.54 1002.13 1002.78 1003.47 1004.17 1004.87 1005.54 1006.17 1006.75 1007.27 1007.73 1008.12 1008.44 1008.68 1008.85 1008.94 1008.97 1008.94 1008.85 1008.73 1008.57
1006.00 1005.53 1005.07 1004.58 1004.07 1003.52 1002.93 1002.32 1001.73 1001.17 1000.70 1000.33 1000.10 1000.03 1000.13 1000.38 1000.78 1001.30 1001.91 1002.58 1003.29 1003.99 1004.67 1005.32 1005.92 1006.46 1006.93 1007.35 1007.70 1007.98 1008.20 1008.36 1008.45 1008.47 1008.45 1008.37 1008.25 1008.11
1008.04 1007.51 1006.95 1006.35 1005.68 1004.97 1004.21 1003.44 1002.69 1001.99 1001.39 1000.92 1000.62 1000.49 1000.53 1000.75 1001.12 1001.61 1002.19 1002.83 1003.48 1004.13 1004.74 1005.31 1005.83 1006.28 1006.68 1007.02 1007.30 1007.54 1007.72 1007.85 1007.93 1007.96 1007.94 1007.88 1007.77 1007.64
Thickness
5726 5724 5725 5728 5728 5728 5728 5726 5721 5717 5718 5721 5723 5724 5720 5718 5714 5712 5711 5706 5704 5703 5701 5701 5700 5699 5698 5697 5696 5695 5694 5693 5692 5691 5690 5689 5687 5686
5723 5723 5723 5726 5727 5726 5725 5725 5723 5719 5717 5722 5720 5722 5718 5719 5713 5712 5710 5706 5704 5703 5701 5700 5699 5698 5697 5696 5695 5694 5693 5692 5691 5690 5689 5687 5686 5684
5723 5722 5721 5721 5723 5724 5723 5723 5721 5719 5715 5719 5721 5719 5714 5713 5713 5711 5711 5708 5708 5704 5702 5700 5698 5697 5696 5695 5694 5693 5692 5691 5689 5688 5687 5685 5684 5682
5721 5720 5720 5720 5718 5720 5720 5720 5718 5716 5714 5712 5715 5716 5712 5711 5710 5708 5711 5711 5709 5705 5702 5700 5698 5697 5695 5694 5693 5692 5690 5689 5687 5686 5684 5683 5681 5679
5720 5718 5718 5717 5715 5717 5715 5716 5716 5716 5713 5712 5712 5713 5712 5711 5708 5707 5709 5706 5707 5707 5703 5700 5698 5696 5694 5693 5692 5690 5689 5687 5685 5683 5681 5680 5678 5676
5718 5717 5717 5716 5714 5713 5712 5711 5711 5711 5710 5710 5711 5711 5708 5708 5705 5706 5706 5707 5706 5707 5704 5701 5698 5696 5694 5692 5690 5688 5686 5684 5682 5680 5678 5676 5675 5673
5716 5715 5715 5714 5711 5710 5712 5711 5709 5708 5709 5708 5707 5707 5706 5703 5703 5704 5703 5703 5703 5703 5702 5701 5700 5698 5696 5692 5689 5686 5682 5680 5678 5676 5674 5672 5670 5668
5713 5713 5713 5710 5707 5704 5704 5703 5702 5703 5704 5703 5704 5702 5700 5701 5699 5699 5698 5697 5695 5700 5696 5697 5698 5696 5695 5692 5688 5683 5679 5676 5673 5671 5669 5667 5665 5662
5712 5711 5713 5713 5707 5707 5702 5698 5698 5696 5695 5697 5699 5698 5697 5697 5694 5693 5691 5690 5689 5692 5689 5689 5692 5691 5691 5690 5683 5678 5674 5671 5668 5665 5663 5661 5658 5656
5711 5710 5709 5709 5708 5704 5703 5702 5701 5699 5695 5693 5694 5694 5694 5692 5689 5687 5686 5684 5684 5685 5684 5681 5685 5685 5686 5683 5677 5673 5669 5665 5662 5659 5656 5654 5651 5649
5709 5709 5707 5705 5701 5698 5697 5697 5696 5695 5693 5690 5687 5686 5684 5682 5681 5681 5681 5679 5679 5682 5681 5677 5678 5677 5678 5677 5673 5668 5663 5659 5656 5653 5650 5647 5645 5642
5707 5706 5702 5700 5696 5692 5693 5692 5689 5689 5690 5688 5683 5681 5680 5678 5674 5673 5675 5674 5674 5674 5676 5670 5669 5668 5667 5671 5668 5663 5658 5654 5651 5647 5644 5641 5638 5635
5705 5704 5702 5694 5690 5687 5686 5687 5685 5683 5684 5683 5682 5680 5679 5677 5674 5671 5669 5668 5667 5667 5668 5662 5660 5659 5656 5658 5659 5657 5653 5649 5646 5643 5639 5636 5631 5627
5700 5700 5697 5689 5684 5681 5679 5679 5677 5674 5677 5678 5677 5677 5675 5674 5672 5668 5664 5661 5658 5656 5654 5652 5649 5647 5645 5645 5646 5647 5645 5642 5639 5636 5634 5630 5625 5621
5694 5690 5687 5682 5678 5675 5672 5671 5669 5670 5672 5672 5671 5670 5669 5667 5664 5660 5657 5653 5650 5648 5647 5642 5639 5637 5635 5634 5635 5635 5633 5633 5630 5627 5624 5621 5619 5615
5684 5681 5677 5674 5672 5670 5669 5666 5664 5665 5666 5664 5664 5663 5662 5659 5655 5652 5649 5647 5644 5643 5640 5634 5630 5626 5624 5624 5622 5622 5622 5620 5619 5616 5613 5611 5609 5606
5681 5677 5675 5673 5670 5667 5665 5664 5662 5659 5657 5655 5654 5652 5650 5648 5645 5643 5639 5637 5634 5632 5630 5627 5623 5618 5616 5613 5612 5613 5611 5610 5608 5605 5600 5600 5599 5596
5671 5670 5667 5665 5663 5661 5659 5656 5654 5651 5648 5646 5643 5640 5638 5637 5635 5632 5629 5625 5622 5621 5619 5616 5613 5609 5607 5607 5602 5600 5599 5597 5595 5592 5588 5587 5587 5586
5660 5660 5658 5656 5654 5651 5649 5647 5644 5641 5637 5634 5632 5630 5627 5625 5622 5620 5617 5614 5612 5609 5608 5605 5602 5597 5594 5595 5595 5588 5586 5584 5582 5580 5578 5576 5574 5574
5651 5650 5647 5645 5642 5639 5636 5634 5632 5629 5626 5622 5620 5617 5615 5612 5609 5607 5605 5601 5599 5597 5595 5594 5590 5586 5581 5580 5580 5578 5573 5572 5570 5568 5566 5565 5563 5561
5638 5636 5633 5631 5628 5626 5623 5620 5618 5616 5613 5610 5608 5604 5601 5599 5596 5594 5593 5589 5585 5585 5583 5582 5579 5572 5570 5568 5568 5569 5566 5560 5556 5553 5553 5553 5554 5553
5625 5622 5619 5617 5614 5611 5608 5606 5604 5602 5600 5598 5595 5592 5589 5586 5584 5582 5580 5578 5576 5574 5572 5570 5567 5563 5560 5558 5557 5556 5554 5551 5547 5544 5541 5540 5539 5540
5610 5607 5605 5602 5599 5596 5594 5592 5590 5589 5586 5584 5581 5579 5577 5574 5572 5570 5568 5566 5564 5562 5559 5557 5555 5552 5550 5548 5546 5545 5544 5542 5541 5539 5537 5532 5527 5525